Bowling Green, KY

7:40 AM CDT on June 22, 2017 (GMT -0500)
Bowling Green-Warren County Regional

Weather History for KBWG - September, 2013

Change the Weather History Date:

Saturday, September 21, 2013

  Actual Average Record
Temperature  
Mean Temperature 64 °F 68 °F  
Max Temperature 73 °F 80 °F 100 °F (1931)
Min Temperature 54 °F 56 °F 37 °F (1927)
Degree Days  
Heating Degree Days 1 2  
Month to date heating degree days 7 9  
Since 1 July heating degree days 7 10  
Cooling Degree Days 0 5  
Month to date cooling degree days 173 155  
Year to date cooling degree days 1433 1424  
Growing Degree Days 16 (Base 50)    
Moisture  
Dew Point 59 °F    
Average Humidity 69    
Maximum Humidity 93    
Minimum Humidity 44    
Precipitation  
Precipitation 0.62 in 0.13 in 2.91 in (1990)
Month to date precipitation 4.98 2.74  
Year to date precipitation 47.68 36.30  
Snow  
Snow 0.00 in 0.00 in 0.00 in ()
Month to date snowfall 0.0 0.0  
Since 1 July snowfall 0.0 0.0  
Since 1 September snowfall 0.0 0.0  
Snow Depth 0.00 in    
Sea Level Pressure  
Sea Level Pressure 29.82 in    
Wind  
Wind Speed 5 mph (NNW)    
Max Wind Speed 16 mph    
Max Gust Speed 29 mph    
Visibility 8 miles    
Events Rain    
T = Trace of Precipitation, MM = Missing Value Source: NWS Daily Summary

Daily Weather History Graph

Daily Weather History Graph

Search for Another Location

Airport or City:

Trip Planner

Search our weather history database for the weather conditions in past years. The results will help you decide how hot, cold, wet, or windy it might be!

Date:

Astronomy

Sep. 21, 2013 Rise Set
Actual Time 6:32 AM CDT 6:43 PM CDT
Civil Twilight 6:07 AM CDT 7:09 PM CDT
Nautical Twilight 5:36 AM CDT 7:39 PM CDT
Astronomical Twilight 5:05 AM CDT 8:10 PM CDT
Moon 7:59 PM CDT (9/21) 8:46 AM CDT (9/21)
Length of Visible Light 13h 02m
Length of Day
12h 10m
Waning Gibbous, 94% of the Moon is Illuminated
Sep 21
Waning Gibbous
Sep 26
Last Quarter
Oct 4
New
Oct 11
First Quarter
Oct 18
Full

Hourly Weather History & Observations

Time (CDT) Temp. Dew Point Humidity Pressure Visibility Wind Dir Wind Speed Gust Speed Precip Events Conditions
12:25 AM 71.6 °F 68.0 °F 88% 29.78 in 5.0 mi SSE 10.4 mph - 0.11 in Rain Rain
12:53 AM 69.1 °F 66.9 °F 93% 29.78 in 2.5 mi WNW 13.8 mph 23.0 mph 0.27 in Rain Heavy Rain
1:00 AM 66.2 °F 64.4 °F 94% 29.80 in 3.0 mi NNW 10.4 mph 28.8 mph 0.03 in Rain Heavy Rain
1:10 AM 66.2 °F 64.4 °F 94% 29.80 in 3.0 mi NNW 9.2 mph 16.1 mph 0.10 in Rain Heavy Rain
1:53 AM 66.0 °F 64.0 °F 93% 29.78 in 2.5 mi NNW 6.9 mph - 0.25 in Rain Heavy Rain
2:25 AM 66.2 °F 64.4 °F 94% 29.78 in 4.0 mi NNW 4.6 mph - 0.20 in Rain Rain
2:53 AM 66.0 °F 64.9 °F 96% 29.75 in 6.0 mi NNW 4.6 mph - 0.27 in Rain Rain
3:14 AM 66.2 °F 64.4 °F 94% 29.77 in 8.0 mi Calm Calm - 0.02 in Rain Light Rain
3:53 AM 66.9 °F 64.9 °F 93% 29.76 in 7.0 mi Calm Calm - 0.06 in Rain Rain
4:36 AM 66.2 °F 64.4 °F 94% 29.78 in 10.0 mi Calm Calm - 0.03 in Rain Light Rain
4:45 AM 66.2 °F 64.4 °F 94% 29.78 in 10.0 mi Calm Calm - 0.03 in Rain Light Rain
4:53 AM 66.9 °F 64.9 °F 93% 29.77 in 10.0 mi Calm Calm - 0.03 in Rain Light Rain
5:25 AM 66.2 °F 64.4 °F 94% 29.79 in 9.0 mi WNW 3.5 mph - 0.03 in Rain Light Rain
5:49 AM 66.2 °F 64.4 °F 94% 29.79 in 9.0 mi NW 6.9 mph - 0.03 in Rain Light Rain
5:53 AM 66.0 °F 64.0 °F 93% 29.79 in 9.0 mi NW 8.1 mph - 0.03 in Rain Light Rain
6:53 AM 63.0 °F 61.0 °F 93% 29.81 in 8.0 mi NNW 6.9 mph - 0.01 in Rain Light Rain
7:08 AM 62.6 °F 60.8 °F 94% 29.82 in 9.0 mi Variable 5.8 mph - N/A   Overcast
7:53 AM 62.1 °F 59.0 °F 90% 29.83 in 10.0 mi NW 5.8 mph - N/A   Overcast
8:53 AM 62.1 °F 57.9 °F 86% 29.86 in 10.0 mi NNW 6.9 mph - N/A   Overcast
9:29 AM 62.6 °F 57.2 °F 82% 29.87 in 10.0 mi NNW 9.2 mph 17.3 mph N/A   Partly Cloudy
9:53 AM 64.9 °F 57.0 °F 75% 29.86 in 10.0 mi NNW 6.9 mph - N/A   Partly Cloudy
10:53 AM 64.9 °F 55.9 °F 73% 29.86 in 10.0 mi NW 9.2 mph - N/A   Partly Cloudy
11:53 AM 68.0 °F 55.0 °F 63% 29.86 in 10.0 mi NW 10.4 mph 16.1 mph N/A   Partly Cloudy
12:53 PM 70.0 °F 55.0 °F 59% 29.85 in 10.0 mi North 8.1 mph 16.1 mph N/A   Mostly Cloudy
1:53 PM 71.1 °F 53.1 °F 53% 29.83 in 10.0 mi North 6.9 mph - N/A   Scattered Clouds
2:53 PM 72.0 °F 52.0 °F 49% 29.83 in 10.0 mi Variable 6.9 mph - N/A   Partly Cloudy
3:53 PM 73.0 °F 50.0 °F 44% 29.82 in 10.0 mi NNW 5.8 mph - N/A   Scattered Clouds
4:53 PM 69.1 °F 51.1 °F 53% 29.83 in 10.0 mi Variable 4.6 mph - N/A   Partly Cloudy
5:53 PM 70.0 °F 52.0 °F 53% 29.84 in 10.0 mi NNW 3.5 mph - N/A   Partly Cloudy
6:53 PM 66.0 °F 51.1 °F 59% 29.85 in 10.0 mi Calm Calm - N/A   Clear
7:53 PM 64.0 °F 52.0 °F 65% 29.87 in 10.0 mi NNW 3.5 mph - N/A   Clear
8:53 PM 63.0 °F 52.0 °F 67% 29.87 in 10.0 mi NNW 3.5 mph - N/A   Clear
9:53 PM 61.0 °F 53.1 °F 75% 29.88 in 10.0 mi NNW 3.5 mph - N/A   Clear
10:53 PM 60.1 °F 52.0 °F 75% 29.89 in 10.0 mi Calm Calm - N/A   Clear
11:53 PM 55.9 °F 52.0 °F 87% 29.89 in 10.0 mi Calm Calm - N/A   Clear